Time,TemperatureF,DewpointF,PressureIn,WindDirection,WindDirectionDegrees,WindSpeedMPH,WindSpeedGustMPH,Humidity,HourlyPrecipIn,Conditions,Clouds,dailyrainin,SoftwareType,DateUTC
2013-05-20 00:00:00,25.0,19.0,-100.00,North,5,5.0,8.0,76,-99.99,,,-99.99,,2013-05-20 06:00:00,
2013-05-20 00:42:00,25.0,19.0,-100.00,North,5,5.0,8.0,76,-99.99,,,-99.99,,2013-05-20 06:42:00,
2013-05-20 00:52:00,25.0,19.0,-100.00,North,5,5.0,8.0,76,-99.99,,,-99.99,,2013-05-20 06:52:00,
2013-05-20 01:00:00,25.0,18.0,-100.00,North,6,9.0,12.0,76,-99.99,,,-99.99,,2013-05-20 07:00:00,
2013-05-20 01:42:00,25.0,18.0,-100.00,North,6,9.0,12.0,76,-99.99,,,-99.99,,2013-05-20 07:42:00,
2013-05-20 01:52:00,25.0,18.0,-100.00,North,6,9.0,12.0,76,-99.99,,,-99.99,,2013-05-20 07:52:00,
2013-05-20 02:00:00,24.0,19.0,-100.00,North,1,7.0,12.0,78,-99.99,,,-99.99,,2013-05-20 08:00:00,
2013-05-20 02:42:00,24.0,19.0,-100.00,North,1,7.0,12.0,78,-99.99,,,-99.99,,2013-05-20 08:42:00,
2013-05-20 02:52:00,24.0,19.0,-100.00,North,1,7.0,12.0,78,-99.99,,,-99.99,,2013-05-20 08:52:00,
2013-05-20 03:00:00,23.0,19.0,-100.00,North,8,9.0,11.0,83,-99.99,,,-99.99,,2013-05-20 09:00:00,
2013-05-20 03:43:00,23.0,19.0,-100.00,North,8,9.0,11.0,83,-99.99,,,-99.99,,2013-05-20 09:43:00,
2013-05-20 03:52:00,23.0,19.0,-100.00,North,8,9.0,11.0,83,-99.99,,,-99.99,,2013-05-20 09:52:00,
2013-05-20 04:00:00,22.0,20.0,-100.00,North,8,10.0,13.0,91,-99.99,,,-99.99,,2013-05-20 10:00:00,
2013-05-20 04:42:00,22.0,20.0,-100.00,North,8,10.0,13.0,91,-99.99,,,-99.99,,2013-05-20 10:42:00,
2013-05-20 04:52:00,22.0,20.0,-100.00,North,8,10.0,13.0,91,-99.99,,,-99.99,,2013-05-20 10:52:00,
2013-05-20 05:00:00,23.0,21.0,-100.00,North,355,14.0,17.0,94,-99.99,,,-99.99,,2013-05-20 11:00:00,
2013-05-20 05:42:00,23.0,21.0,-100.00,North,355,14.0,17.0,94,-99.99,,,-99.99,,2013-05-20 11:42:00,
2013-05-20 05:52:00,23.0,21.0,-100.00,North,355,14.0,17.0,94,-99.99,,,-99.99,,2013-05-20 11:52:00,
2013-05-20 06:00:00,23.0,21.0,-100.00,North,355,11.0,15.0,95,-99.99,,,-99.99,,2013-05-20 12:00:00,
2013-05-20 06:42:00,23.0,21.0,-100.00,North,355,11.0,15.0,95,-99.99,,,-99.99,,2013-05-20 12:42:00,
2013-05-20 06:52:00,23.0,21.0,-100.00,North,355,11.0,15.0,95,-99.99,,,-99.99,,2013-05-20 12:52:00,
2013-05-20 07:00:00,22.0,22.0,-100.00,North,354,11.0,16.0,98,-99.99,,,-99.99,,2013-05-20 13:00:00,
2013-05-20 07:42:00,22.0,22.0,-100.00,North,354,11.0,16.0,98,-99.99,,,-99.99,,2013-05-20 13:42:00,
2013-05-20 07:52:00,22.0,22.0,-100.00,North,354,11.0,16.0,98,-99.99,,,-99.99,,2013-05-20 13:52:00,
2013-05-20 08:00:00,23.0,22.0,-100.00,North,351,12.0,15.0,98,-99.99,,,-99.99,,2013-05-20 14:00:00,
2013-05-20 08:42:00,23.0,22.0,-100.00,North,351,12.0,15.0,98,-99.99,,,-99.99,,2013-05-20 14:42:00,
2013-05-20 08:52:00,23.0,22.0,-100.00,North,351,12.0,15.0,98,-99.99,,,-99.99,,2013-05-20 14:52:00,
2013-05-20 09:00:00,23.0,22.0,-100.00,North,354,11.0,15.0,97,-99.99,,,-99.99,,2013-05-20 15:00:00,
2013-05-20 09:42:00,23.0,22.0,-100.00,North,354,11.0,15.0,97,-99.99,,,-99.99,,2013-05-20 15:42:00,
2013-05-20 09:53:00,23.0,22.0,-100.00,North,354,11.0,15.0,97,-99.99,,,-99.99,,2013-05-20 15:53:00,
2013-05-20 10:00:00,24.0,22.0,-100.00,North,354,13.0,19.0,94,-99.99,,,-99.99,,2013-05-20 16:00:00,
2013-05-20 10:42:00,24.0,22.0,-100.00,North,354,13.0,19.0,94,-99.99,,,-99.99,,2013-05-20 16:42:00,
2013-05-20 10:53:00,24.0,22.0,-100.00,North,354,13.0,19.0,94,-99.99,,,-99.99,,2013-05-20 16:53:00,
2013-05-20 11:00:00,25.0,21.0,-100.00,NNW,348,13.0,18.0,83,-99.99,,,-99.99,,2013-05-20 17:00:00,
2013-05-20 11:45:00,25.0,21.0,-100.00,NNW,348,13.0,18.0,83,-99.99,,,-99.99,,2013-05-20 17:45:00,
2013-05-20 11:53:00,25.0,21.0,-100.00,NNW,348,13.0,18.0,83,-99.99,,,-99.99,,2013-05-20 17:53:00,
2013-05-20 12:00:00,27.0,23.0,-100.00,NNW,336,12.0,22.0,83,-99.99,,,-99.99,,2013-05-20 18:00:00,
2013-05-20 12:42:00,27.0,23.0,-100.00,NNW,336,12.0,22.0,83,-99.99,,,-99.99,,2013-05-20 18:42:00,
2013-05-20 12:55:00,27.0,23.0,-100.00,NNW,336,12.0,22.0,83,-99.99,,,-99.99,,2013-05-20 18:55:00,
2013-05-20 13:00:00,27.0,23.0,-100.00,NNW,339,14.0,24.0,83,-99.99,,,-99.99,,2013-05-20 19:00:00,
2013-05-20 13:42:00,27.0,23.0,-100.00,NNW,339,14.0,24.0,83,-99.99,,,-99.99,,2013-05-20 19:42:00,
2013-05-20 13:52:00,27.0,23.0,-100.00,NNW,339,14.0,24.0,83,-99.99,,,-99.99,,2013-05-20 19:52:00,
2013-05-20 14:00:00,29.0,21.0,-100.00,NNW,330,17.0,29.0,73,-99.99,,,-99.99,,2013-05-20 20:00:00,
2013-05-20 14:42:00,29.0,21.0,-100.00,NNW,330,17.0,29.0,73,-99.99,,,-99.99,,2013-05-20 20:42:00,
2013-05-20 14:52:00,29.0,21.0,-100.00,NNW,330,17.0,29.0,73,-99.99,,,-99.99,,2013-05-20 20:52:00,
2013-05-20 15:43:00,29.0,20.0,-100.00,NNW,328,21.0,30.0,68,-99.99,,,-99.99,,2013-05-20 21:43:00,
2013-05-20 16:00:00,30.0,20.0,-100.00,NNW,330,22.0,35.0,65,-99.99,,,-99.99,,2013-05-20 22:00:00,
2013-05-20 16:42:00,30.0,20.0,-100.00,NNW,330,22.0,35.0,65,-99.99,,,-99.99,,2013-05-20 22:42:00,
2013-05-20 16:52:00,30.0,20.0,-100.00,NNW,330,22.0,35.0,65,-99.99,,,-99.99,,2013-05-20 22:52:00,
2013-05-20 17:00:00,30.0,22.0,-100.00,NNW,329,24.0,34.0,72,-99.99,,,-99.99,,2013-05-20 23:00:00,
2013-05-20 17:42:00,30.0,22.0,-100.00,NNW,329,24.0,34.0,72,-99.99,,,-99.99,,2013-05-20 23:42:00,
2013-05-20 17:53:00,30.0,22.0,-100.00,NNW,329,24.0,34.0,72,-99.99,,,-99.99,,2013-05-20 23:53:00,
2013-05-20 18:00:00,29.0,25.0,-100.00,NNW,332,28.0,37.0,85,-99.99,,,-99.99,,2013-05-21 00:00:00,
2013-05-20 18:42:00,29.0,25.0,-100.00,NNW,332,28.0,37.0,85,-99.99,,,-99.99,,2013-05-21 00:42:00,
2013-05-20 18:52:00,29.0,25.0,-100.00,NNW,332,28.0,37.0,85,-99.99,,,-99.99,,2013-05-21 00:52:00,
2013-05-20 19:00:00,27.0,26.0,-100.00,NNW,334,26.0,38.0,98,-99.99,,,-99.99,,2013-05-21 01:00:00,
2013-05-20 19:42:00,27.0,26.0,-100.00,NNW,334,26.0,38.0,98,-99.99,,,-99.99,,2013-05-21 01:42:00,
2013-05-20 19:53:00,27.0,26.0,-100.00,NNW,334,26.0,38.0,98,-99.99,,,-99.99,,2013-05-21 01:53:00,
2013-05-20 20:00:00,27.0,27.0,-100.00,NNW,339,23.0,41.0,99,-99.99,,,-99.99,,2013-05-21 02:00:00,
2013-05-20 20:42:00,27.0,27.0,-100.00,NNW,339,23.0,41.0,99,-99.99,,,-99.99,,2013-05-21 02:42:00,
2013-05-20 20:52:00,27.0,27.0,-100.00,NNW,339,23.0,41.0,99,-99.99,,,-99.99,,2013-05-21 02:52:00,
2013-05-20 21:00:00,26.0,26.0,-100.00,NNW,338,20.0,29.0,99,-99.99,,,-99.99,,2013-05-21 03:00:00,
2013-05-20 21:43:00,26.0,26.0,-100.00,NNW,338,20.0,29.0,99,-99.99,,,-99.99,,2013-05-21 03:43:00,
2013-05-20 21:53:00,26.0,26.0,-100.00,NNW,338,20.0,29.0,99,-99.99,,,-99.99,,2013-05-21 03:53:00,
2013-05-20 22:00:00,26.0,26.0,-100.00,NNW,344,17.0,27.0,99,-99.99,,,-99.99,,2013-05-21 04:00:00,
2013-05-20 22:42:00,26.0,26.0,-100.00,NNW,344,17.0,27.0,99,-99.99,,,-99.99,,2013-05-21 04:42:00,
2013-05-20 22:53:00,26.0,26.0,-100.00,NNW,344,17.0,27.0,99,-99.99,,,-99.99,,2013-05-21 04:53:00,
2013-05-20 23:00:00,26.0,25.0,-100.00,North,349,18.0,27.0,99,-99.99,,,-99.99,,2013-05-21 05:00:00,
2013-05-20 23:42:00,26.0,25.0,-100.00,North,349,18.0,27.0,99,-99.99,,,-99.99,,2013-05-21 05:42:00,
2013-05-20 23:52:00,26.0,25.0,-100.00,North,349,18.0,27.0,99,-99.99,,,-99.99,,2013-05-21 05:52:00,